EN

Hourly Weather Abasolo

Today, 30 November, Monday

Time Temperature Precipitation Wind Pressure Humidity
00:00 +14°C° 0 mm 0 mps 621 mmHg 74%
01:00 +15°C° 0 mm 1 mps 621 mmHg 79%
02:00 +14°C° 0 mm 1 mps 621 mmHg 84%
03:00 +14°C° 0 mm 1 mps 621 mmHg 87%
04:00 +13°C° 0 mm 1 mps 621 mmHg 90%
05:00 +13°C° 0 mm 1 mps 621 mmHg 94%
06:00 +15°C° 0 mm 1 mps 622 mmHg 84%
07:00 +18°C° 0 mm 1 mps 623 mmHg 75%
08:00 +19°C° 0 mm 2 mps 624 mmHg 66%
09:00 +21°C° 0 mm 2 mps 625 mmHg 56%
10:00 +25°C° 0 mm 1 mps 625 mmHg 46%
11:00 +28°C° 0 mm 1 mps 626 mmHg 36%
12:00 +28°C° 0 mm 1 mps 625 mmHg 36%
13:00 +27°C° 0 mm 2 mps 624 mmHg 37%
14:00 +27°C° 0 mm 2 mps 623 mmHg 37%
15:00 +25°C° 0 mm 2 mps 622 mmHg 42%
16:00 +23°C° 0 mm 2 mps 622 mmHg 47%
17:00 +21°C° 0 mm 2 mps 622 mmHg 52%
18:00 +19°C° 0 mm 2 mps 622 mmHg 55%
19:00 +18°C° 0 mm 2 mps 622 mmHg 59%
20:00 +16°C° 0 mm 2 mps 622 mmHg 62%
21:00 +15°C° 0 mm 2 mps 622 mmHg 67%
22:00 +13°C° 0 mm 2 mps 622 mmHg 72%
23:00 +12°C° 0 mm 1 mps 621 mmHg 76%

Tomorrow, 1 December, Tuesday

Time Temperature Precipitation Wind Pressure Humidity
00:00 +12°C° 0 mm 1 mps 621 mmHg 77%
01:00 +11°C° 0 mm 1 mps 621 mmHg 78%
02:00 +11°C° 0 mm 1 mps 620 mmHg 79%
03:00 +11°C° 0 mm 1 mps 620 mmHg 81%
04:00 +10°C° 0 mm 1 mps 620 mmHg 84%
05:00 +10°C° 0 mm 1 mps 620 mmHg 87%
06:00 +11°C° 0 mm 1 mps 621 mmHg 79%
07:00 +13°C° 0 mm 1 mps 621 mmHg 71%
08:00 +15°C° 0 mm 1 mps 622 mmHg 63%
09:00 +20°C° 0 mm 1 mps 623 mmHg 53%
10:00 +23°C° 0 mm 2 mps 623 mmHg 42%
11:00 +26°C° 0 mm 2 mps 624 mmHg 32%
12:00 +27°C° 0 mm 3 mps 623 mmHg 28%
13:00 +27°C° 0 mm 4 mps 623 mmHg 24%
14:00 +28°C° 0 mm 5 mps 622 mmHg 21%
15:00 +26°C° 0 mm 4 mps 622 mmHg 27%
16:00 +23°C° 0 mm 4 mps 621 mmHg 32%
17:00 +21°C° 0 mm 3 mps 620 mmHg 38%
18:00 +19°C° 0 mm 3 mps 620 mmHg 46%
19:00 +17°C° 0 mm 2 mps 620 mmHg 54%
20:00 +15°C° 0 mm 2 mps 620 mmHg 63%
21:00 +14°C° 0 mm 1 mps 620 mmHg 69%
22:00 +13°C° 0 mm 1 mps 620 mmHg 75%
23:00 +13°C° 0 mm 1 mps 620 mmHg 81%

Day after tomorrow, 2 December, Wednesday

Time Temperature Precipitation Wind Pressure Humidity
00:00 +12°C° 0 mm 1 mps 619 mmHg 84%
01:00 +11°C° 0 mm 1 mps 619 mmHg 87%
02:00 +10°C° 0 mm 0 mps 619 mmHg 90%
03:00 +10°C° 0 mm 0 mps 619 mmHg 90%
04:00 +9°C° 0 mm 0 mps 619 mmHg 91%
05:00 +9°C° 0 mm 0 mps 619 mmHg 91%
06:00 +11°C° 0 mm 0 mps 620 mmHg 81%
07:00 +13°C° 0 mm 0 mps 621 mmHg 72%
08:00 +15°C° 0 mm 0 mps 622 mmHg 62%
09:00 +19°C° 0 mm 0 mps 623 mmHg 49%
10:00 +24°C° 0 mm 1 mps 624 mmHg 37%
11:00 +27°C° 0 mm 1 mps 625 mmHg 24%
12:00 +27°C° 0 mm 1 mps 624 mmHg 22%
13:00 +27°C° 0 mm 2 mps 623 mmHg 19%
14:00 +27°C° 0 mm 3 mps 622 mmHg 17%
15:00 +25°C° 0 mm 2 mps 622 mmHg 20%
16:00 +23°C° 0 mm 2 mps 621 mmHg 23%
17:00 +20°C° 0 mm 2 mps 621 mmHg 26%
18:00 +18°C° 0 mm 2 mps 621 mmHg 35%
19:00 +16°C° 0 mm 1 mps 621 mmHg 43%
20:00 +14°C° 0 mm 1 mps 621 mmHg 52%
21:00 +14°C° 0 mm 1 mps 620 mmHg 56%
22:00 +13°C° 0 mm 1 mps 620 mmHg 61%
23:00 +11°C° 0 mm 0 mps 620 mmHg 65%

3 December, Thursday

Time Temperature Precipitation Wind Pressure Humidity
00:00 +11°C° 0 mm 0 mps 620 mmHg 69%
01:00 +10°C° 0 mm 0 mps 619 mmHg 73%
02:00 +10°C° 0 mm 0 mps 619 mmHg 77%
03:00 +9°C° 0 mm 0 mps 619 mmHg 79%
04:00 +9°C° 0 mm 0 mps 619 mmHg 82%
05:00 +9°C° 0 mm 0 mps 619 mmHg 84%
06:00 +12°C° 0 mm 1 mps 620 mmHg 76%
07:00 +14°C° 0 mm 1 mps 621 mmHg 69%
08:00 +16°C° 0 mm 1 mps 622 mmHg 61%
09:00 +20°C° 0 mm 1 mps 623 mmHg 50%
10:00 +23°C° 0 mm 1 mps 624 mmHg 40%
11:00 +27°C° 0 mm 1 mps 625 mmHg 29%
12:00 +27°C° 0 mm 2 mps 624 mmHg 26%
13:00 +27°C° 0 mm 2 mps 623 mmHg 24%
14:00 +27°C° 0 mm 3 mps 623 mmHg 21%
15:00 +25°C° 0 mm 3 mps 622 mmHg 25%
16:00 +24°C° 0 mm 2 mps 622 mmHg 29%
17:00 +21°C° 0 mm 2 mps 622 mmHg 34%
18:00 +19°C° 0 mm 2 mps 622 mmHg 42%
19:00 +17°C° 0 mm 2 mps 622 mmHg 49%
20:00 +15°C° 0 mm 1 mps 622 mmHg 57%
21:00 +14°C° 0 mm 1 mps 621 mmHg 62%
22:00 +13°C° 0 mm 1 mps 621 mmHg 67%
23:00 +13°C° 0 mm 1 mps 621 mmHg 72%

4 December, Friday

Time Temperature Precipitation Wind Pressure Humidity
00:00 +12°C° 0 mm 1 mps 621 mmHg 76%
01:00 +10°C° 0 mm 0 mps 620 mmHg 80%
02:00 +10°C° 0 mm 0 mps 620 mmHg 84%
03:00 +10°C° 0 mm 1 mps 620 mmHg 86%
04:00 +10°C° 0 mm 1 mps 620 mmHg 88%
05:00 +9°C° 0 mm 1 mps 620 mmHg 90%
06:00 +11°C° 0 mm 1 mps 621 mmHg 81%
07:00 +13°C° 0 mm 1 mps 622 mmHg 71%
08:00 +15°C° 0 mm 1 mps 623 mmHg 62%
09:00 +20°C° 0 mm 1 mps 623 mmHg 51%
10:00 +23°C° 0 mm 1 mps 624 mmHg 40%
11:00 +27°C° 0 mm 1 mps 625 mmHg 29%
12:00 +27°C° 0 mm 1 mps 624 mmHg 28%
13:00 +27°C° 0 mm 2 mps 623 mmHg 26%
14:00 +27°C° 0 mm 2 mps 623 mmHg 24%
15:00 +25°C° 0 mm 2 mps 622 mmHg 30%
16:00 +24°C° 0 mm 2 mps 622 mmHg 36%
17:00 +21°C° 0 mm 2 mps 622 mmHg 43%
18:00 +19°C° 0 mm 2 mps 622 mmHg 50%
19:00 +19°C° 0 mm 1 mps 622 mmHg 58%
20:00 +16°C° 0 mm 1 mps 622 mmHg 65%
21:00 +15°C° 0 mm 1 mps 622 mmHg 68%
22:00 +15°C° 0 mm 1 mps 622 mmHg 71%
23:00 +14°C° 0 mm 1 mps 622 mmHg 73%

5 December, Saturday

Time Temperature Precipitation Wind Pressure Humidity
00:00 +13°C° 0 mm 1 mps 621 mmHg 77%
01:00 +12°C° 0 mm 1 mps 621 mmHg 81%
02:00 +11°C° 0 mm 1 mps 620 mmHg 85%
03:00 +11°C° 0 mm 1 mps 620 mmHg 88%
04:00 +10°C° 0 mm 1 mps 620 mmHg 90%
05:00 +10°C° 0 mm 1 mps 620 mmHg 92%
06:00 +12°C° 0 mm 1 mps 621 mmHg 83%
07:00 +13°C° 0 mm 1 mps 622 mmHg 75%
08:00 +15°C° 0 mm 1 mps 623 mmHg 66%
09:00 +20°C° 0 mm 1 mps 624 mmHg 55%
10:00 +23°C° 0 mm 1 mps 624 mmHg 44%
11:00 +27°C° 0 mm 1 mps 625 mmHg 33%
12:00 +27°C° 0 mm 1 mps 625 mmHg 30%
13:00 +27°C° 0 mm 2 mps 624 mmHg 28%
14:00 +28°C° 0 mm 2 mps 623 mmHg 25%
15:00 +26°C° 0 mm 2 mps 623 mmHg 29%
16:00 +24°C° 0 mm 2 mps 622 mmHg 34%
17:00 +23°C° 0 mm 1 mps 622 mmHg 38%
18:00 +21°C° 0 mm 1 mps 622 mmHg 46%
19:00 +19°C° 0 mm 1 mps 622 mmHg 53%
20:00 +16°C° 0 mm 1 mps 622 mmHg 60%
21:00 +15°C° 0 mm 1 mps 622 mmHg 64%
22:00 +13°C° 0 mm 0 mps 621 mmHg 68%
23:00 +12°C° 0 mm 0 mps 621 mmHg 72%
Show more